星链-4284 (STARLINK-4284 )

导读

STARLINK-4284是美国SpaceX公司星链星座的低轨通信卫星,于2022年7月7日发射升空,属于星链全球卫星互联网组网计划的组成部分。它运行在近地轨道,配备霍尔推进系统与自主避撞功能,旨在为全球提供高速低延迟宽带通信,填补偏远地区网络覆盖空白。星链星座计划部署数万颗卫星,该卫星服役期满后会主动脱轨再入大气层烧毁,减少太空碎片残留。

基本信息
目录编号:
53023
目录名称:
STARLINK-4284
国际标识:
2022-076AP
轨道中心:
EARTH
卫星名称:
星链-4284
卫星全名:
星链-4284 (STARLINK-4284 )
卫星状态:
在轨 (已飞行1441 天)
发射日期:
2022-07-07 UTC
国别 :
美国 (US)
星等 :
--
轨道信息
数据来源 国际轨道数据
星历时间: 2026-06-17T03:44:03+0800
15小时前
查看轨道信息
半长轴: 6917.904km
偏心率: 0.000117
轨道倾角: 53.161°
近地点辐角 90.322°
升交点赤经 358.993°
平近点角 269.791°
近地点: 538.957km
远地点: 540.577km
周期: 95.438分钟
每日圈数: 15.088326
详细信息
固有亮度:
5
最大亮度:
2.5
卫星平台:
Starlink v1.5
覆盖范围:
全球
运营商:
太空探索技术公司
运营商所在国:
美国
制造商(研发单位):
太空探索技术公司
制造商所在国:
美国
使用方式:
暂无
卫星简介
星链(Starlink)计划是由太空探索技术公司(SpaceX)提出的一个巨型低轨卫星互联网星座项目,计划在2019年至2024年间在太空搭建由约1.2万颗卫星组成的“星链”网络,其中1584颗将部署在地球上空550千米处的近地轨道,并从2020年开始工作。该卫星仍在工作。
2D轨道图
3D轨道图
轨道高度分析图
轨道倾角分析图
轨道综合分析图
查看轨道综合分析图